TimeHST,TemperatureF,Dew PointF,Humidity,Sea Level PressureIn,VisibilityMPH,Wind Direction,Wind SpeedMPH,Gust SpeedMPH,PrecipitationIn,Events,Conditions,WindDirDegrees,DateUTC
12:53 AM,70.0,64.9,84,30.12,10.0,SW,5.8,-,N/A,,Clear,230,2011-10-05 10:53:00
1:53 AM,69.1,63.0,81,30.10,10.0,WSW,8.1,-,N/A,,Partly Cloudy,250,2011-10-05 11:53:00
2:53 AM,70.0,60.1,71,30.09,10.0,SW,6.9,-,N/A,,Overcast,220,2011-10-05 12:53:00
3:53 AM,69.1,61.0,75,30.09,10.0,SSW,5.8,-,0.00,,Overcast,210,2011-10-05 13:53:00
4:53 AM,70.0,60.1,71,30.11,10.0,SW,5.8,-,N/A,,Mostly Cloudy,220,2011-10-05 14:53:00
5:53 AM,68.0,60.1,76,30.12,10.0,WSW,6.9,-,0.00,,Partly Cloudy,240,2011-10-05 15:53:00
6:53 AM,70.0,60.1,71,30.12,10.0,SW,8.1,-,N/A,,Scattered Clouds,230,2011-10-05 16:53:00
7:53 AM,75.9,61.0,60,30.13,10.0,West,5.8,-,N/A,,Mostly Cloudy,260,2011-10-05 17:53:00
8:53 AM,82.0,57.0,42,30.13,10.0,Variable,4.6,-,N/A,,Mostly Cloudy,0,2011-10-05 18:53:00
9:53 AM,82.0,60.1,47,30.14,10.0,Variable,6.9,-,N/A,,Scattered Clouds,0,2011-10-05 19:53:00
10:53 AM,82.9,59.0,44,30.11,10.0,Variable,4.6,-,N/A,,Scattered Clouds,0,2011-10-05 20:53:00
11:53 AM,84.9,57.9,40,30.09,10.0,ESE,11.5,-,N/A,,Scattered Clouds,110,2011-10-05 21:53:00
12:53 PM,86.0,59.0,40,30.06,10.0,East,11.5,17.3,N/A,,Scattered Clouds,100,2011-10-05 22:53:00
1:53 PM,84.9,60.1,43,30.04,10.0,ESE,9.2,-,N/A,,Scattered Clouds,110,2011-10-05 23:53:00
2:53 PM,84.0,60.1,44,30.03,10.0,ESE,8.1,-,N/A,,Mostly Cloudy,120,2011-10-06 00:53:00
3:53 PM,81.0,62.1,52,30.03,10.0,SE,5.8,-,N/A,,Mostly Cloudy,130,2011-10-06 01:53:00
4:53 PM,81.0,63.0,54,30.04,10.0,East,4.6,-,N/A,,Overcast,100,2011-10-06 02:53:00
5:53 PM,75.9,66.9,74,30.06,10.0,ENE,8.1,-,N/A,,Overcast,70,2011-10-06 03:53:00
6:53 PM,75.9,66.0,71,30.07,10.0,Calm,Calm,-,0.00,,Overcast,0,2011-10-06 04:53:00
7:53 PM,75.0,66.0,73,30.09,10.0,Calm,Calm,-,N/A,,Scattered Clouds,0,2011-10-06 05:53:00
8:53 PM,75.9,68.0,76,30.11,10.0,Calm,Calm,-,N/A,,Overcast,0,2011-10-06 06:53:00
9:30 PM,73.4,69.8,88,30.13,2.5,East,6.9,-,0.01,Rain,Rain,100,2011-10-06 07:30:00
9:39 PM,71.6,69.8,94,30.13,3.0,Calm,Calm,-,0.03,Rain,Light Rain,0,2011-10-06 07:39:00
9:53 PM,72.0,68.0,87,30.12,10.0,West,5.8,-,0.03,,Overcast,260,2011-10-06 07:53:00
10:53 PM,72.0,68.0,87,30.11,10.0,WSW,6.9,-,N/A,,Partly Cloudy,240,2011-10-06 08:53:00
11:53 PM,72.0,66.9,84,30.09,10.0,WSW,6.9,-,N/A,,Overcast,240,2011-10-06 09:53:00